Flag for Argentina Weather past 2 weeks in Río Gallegos, Santa Cruz, Argentina

Now
39 °F

Sunny.


Feels Like: 39 °F
Forecast: 36 / 51 °F
Wind: No wind

Location: Rio Gallegos Aerodrome


UV Index: 0 (Low)

Visibility: 10 mi


Pressure: 29.98 "Hg

Humidity: 100%

Dew point: 39 °F

Location of Río GallegosLocation

Historic Weather in Río Gallegos

°F

Río Gallegos temperature yesterday

Maximum temperature yesterday: 55 °F (at 2:00 PM)
Minimum temperature yesterday: 12 °F (at 1:00 PM)
Average temperature yesterday: 41 °F

Past Weeks' High & Low Weather Summary

 TemperatureHumidityPressure
High63 °F (Apr 13, 6:00 PM)100% (Apr 9, 11:00 AM)30.21 "Hg (Apr 9, 11:00 AM)
Low12 °F (Apr 23, 1:00 PM)26% (Apr 22, 2:00 PM)28.97 "Hg (Apr 15, 6:00 AM)
Average44 °F67%29.71 "Hg
* Reported Apr 9 9:00 AM — Apr 24 9:00 AM, Río Gallegos, Weather by CustomWeather, © 2014

Note: Actual official high and low records may vary slightly from our data, if they occured in-between our weather recording intervals... More about our weather records

Advertising

Historic Weather Conditions — Data for Previous 24 hours

 ConditionsComfort  
Time TempWeatherWind HumidityBarometerVisibility
9:00 AM
Apr 24
37 °FSunny.No wind81%29.98 "Hg10 mi
8:00 AM39 °FSunny.No wind75%29.98 "Hg10 mi
7:00 AM43 °FClear.No wind71%29.98 "Hg10 mi
6:00 AM41 °FClear.No wind70%30.01 "Hg10 mi
5:00 AM43 °FClear.No wind66%30.01 "Hg10 mi
3:00 AM45 °FClear.14 mph61%30.01 "Hg10 mi
2:00 AM43 °FClear.3 mph81%30.04 "Hg10 mi
1:00 AM45 °FClear.7 mph81%30.04 "Hg10 mi
12:00 AM43 °FClear.No wind76%29.98 "Hg10 mi
11:00 PM
Apr 23
43 °FClear.2 mph87%30.07 "Hg10 mi
10:00 PM43 °FClear.No wind87%30.07 "Hg10 mi
9:00 PM43 °FClear.3 mph93%30.07 "Hg10 mi
8:00 PM45 °FClear.3 mph81%30.07 "Hg10 mi
7:00 PM45 °FClear.2 mph87%30.07 "Hg10 mi
6:00 PM48 °FClear.6 mph54%30.07 "Hg10 mi
5:00 PM52 °FSunny.9 mph41%30.04 "Hg10 mi
4:00 PM55 °FSunny.6 mph36%30.04 "Hg10 mi
3:00 PM54 °FSunny.No wind44%30.04 "Hg10 mi
2:00 PM55 °FSunny.No wind44%30.07 "Hg10 mi
1:00 PM12 °FSunny.No wind100%30.07 "Hg10 mi
12:00 PM48 °FSunny.No wind58%30.07 "Hg10 mi
11:00 AM41 °FSunny.No wind66%30.07 "Hg10 mi
10:00 AM34 °FSunny.No wind65%30.07 "Hg10 mi
Weather by CustomWeather, © 2014

See weather overview